SCP
0 0 -0 -0 -0 -0 -0 -0 0 0 -0 -0 -0 -0 -0 -0 -0 -0 -0 -0 -0 0 -0 -0 -0 -0 -0 -0 -0 -0 -0 -0 -0 -0 -0 -0 -0 -0 -0 -0 -0 -0 -0
0 0 -0 -0 -0 -0 -0 0 0 0 -0 -0 -0 -0 -0 -0 -0 -0 -0 -0 -0 -0 -0 -0 -0 -0 -0 -0 -0 -0 -0 -0 -0 0 0 0 0 -0 -0 -0 -0 -0 -0
0 0 0 -0 -0 -0 0 0 0 -0 -0 -0 -0 -0 -0 -0 -0 -0 -0 -0 -0 -0 -0 -0 -0 -0 -0 -0 -0 -0 -0 -0 -0 -0 0 0 0 -0 -0 -0 0 0 0
0 0 0 0 -0 -0 0 0 0 0 -0 -0 -0 -0 -0 -0 -0 -0 -0 -0 -0 -0 -0 -0 -0 -0 -0 -0 -0 -0 -0 -0 -0 -0 0 0 0 -0 -0 -0 -0 -0 -0
0 0 0 -0 -0 -0 -0 0 0 0 -0 -0 -0 -0 -0 -0 -0 -0 -0 -0 -0 -0 -0 -0 -0 -0 -0 -0 -0 -0 -0 -0 -0 -0 0 0 0 0 0 -0 0 0 0
0 0 0 0 -0 0 0 0 0 0 0 -0 -0 -0 -0 -0 -0 -0 -0 -0 -0 -0 -0 -0 -0 -0 -0 -0 -0 -0 -0 -0 -0 -0 0 -0 0 -0 -0 -0 0 0 0
0 1 0 0 0 0 0 0 0 0 0 -0 -0 -0 -0 -0 -0 -0 -0 -0 -0 -0 -0 -0 -0 -0 -0 -0 -0 -0 -0 -0 0 0 0 0 -0 -0 -0 0 0 0 0
1 1 0 0 0 0 0 0 0 0 0 0 -0 -0 -0 -0 -0 -0 -0 -0 -0 -0 -0 -0 -0 -0 -0 -0 -0 -0 -0 -0 0 0 0 0 -0 -0 0 0 -0 0 0
1 1 0 0 0 0 0 0 0 0 0 0 0 -0 -0 -0 -0 -0 -0 -0 -0 -0 -0 -0 -0 -0 -0 -0 -0 -0 0 0 0 0 0 0 -0 0 0 0 -0 -0 0
1 1 0 0 0 0 0 0 0 0 0 0 0 0 0 0 -0 -0 -0 -0 -0 -0 -0 -0 -0 -0 -0 -0 -0 0 0 0 0 0 0 0 0 0 0 0 0 0 0
1 0 0 0 0 0 0 0 0 0 0 0 0 0 0 0 0 0 0 -0 -0 -0 -0 -0 -0 -0 -0 0 0 0 0 0 0 0 0 0 0 0 0 0 0 0 0
0 0 0 0 0 0 0 0 0 0 0 0 0 0 0 0 0 0 0 -0 -0 -0 -0 -0 -0 -0 0 0 0 0 0 0 0 0 0 0 0 0 0 0 0 0 0
0 0 0 0 0 0 0 0 0 0 0 0 0 0 0 0 0 0 0 0 0 -0 0 0 0 0 0 0 0 0 0 0 0 0 0 0 0 0 0 0 0 0 0
0 0 0 0 0 0 0 0 0 0 0 0 0 0 0 0 0 0 0 0 0 0 0 0 0 0 0 0 0 0 0 0 0 0 0 0 0 0 0 0 0 0 0
0 0 0 0 0 0 0 0 0 0 0 0 0 0 0 0 0 0 0 0 0 0 0 0 0 0 0 0 0 0 0 0 0 0 0 0 0 0 0 0 0 0 0
0 0 0 0 0 0 0 0 0 0 0 0 0 0 0 0 0 0 0 0 0 0 0 0 0 0 0 0 0 0 0 0 0 0 0 0 0 0 0 0 0 0 0
0 0 0 0 0 0 0 0 0 0 0 0 0 0 0 0 0 0 0 0 0 0 0 0 0 0 0 0 0 0 0 0 0 0 0 0 0 0 0 0 0 0 0
0 0 0 0 0 0 0 0 0 0 0 0 0 0 0 0 0 0 0 0 0 0 0 0 0 0 0 0 0 0 0 0 0 0 0 0 0 0 0 0 0 0 0
0 0 0 0 0 0 0 0 0 0 0 0 0 0 0 0 0 0 0 0 0 0 0 0 0 0 0 0 0 0 0 0 0 0 0 0 0 0 0 0 0 0 0
0 0 0 0 0 0 0 0 0 0 0 0 0 0 0 0 0 0 0 0 0 0 0 0 0 0 0 0 0 0 0 0 0 0 0 0 0 0 0 0 0 0 0
0 0 0 0 0 0 0 0 0 0 0 0 0 0 0 0 0 0 0 0 0 0 0 0 0 0 0 0 0 0 0 0 0 0 0 0 0 0 0 0 0 0 0
0 0 0 0 0 0 0 0 0 0 0 0 0 0 0 0 0 0 0 0 0 0 0 0 0 0 0 0 0 0 0 0 0 0 0 0 0 0 0 0 0 0 0
0 0 0 0 0 0 0 0 0 0 0 0 0 0 0 0 0 0 0 0 0 0 0 0 0 0 0 0 0 0 0 0 0 0 0 0 0 0 0 0 0 0 0
0 0 0 0 0 0 0 0 0 0 0 0 0 0 0 0 0 0 0 0 0 0 0 0 0 0 0 0 0 0 0 0 0 0 0 0 0 0 0 0 0 0 0
0 0 0 0 0 0 0 0 0 0 0 0 0 0 0 0 0 0 0 0 0 0 0 0 0 0 0 0 0 0 0 0 0 0 0 0 0 0 0 0 0 0 0
0 0 0 0 0 0 0 0 0 0 0 0 0 0 0 0 0 0 0 0 0 0 0 0 0 0 0 0 0 0 0 0 0 0 0 0 0 0 0 0 0 0 0
Wind_Speed_500mb
63 58 56 54 55 49 43 41 35 31 29 30 30 21 12 11 13 13 13 11 9 7 4 4 4 4 4 5 5 5 5 5 5 5 4 3 1 7 8 11 10 10 7
68 63 59 60 56 48 44 39 35 32 34 30 27 16 9 10 12 12 11 9 7 7 8 8 8 9 9 9 9 10 12 12 13 12 9 6 5 8 11 15 10 10 8
67 66 63 62 55 50 45 40 38 37 30 29 23 14 11 12 12 11 10 10 11 11 11 11 12 14 14 14 15 16 16 15 16 15 15 17 24 20 26 27 27 21 14
67 69 68 59 56 50 45 45 41 35 31 28 21 16 15 13 12 12 12 13 13 14 14 14 15 16 16 17 19 21 22 25 29 32 34 27 20 12 12 27 27 25 23
69 71 68 60 56 52 46 43 39 35 30 25 20 18 16 14 13 14 14 14 15 15 16 16 17 17 17 20 24 26 26 30 34 33 23 16 13 20 10 10 10 16 22
74 75 66 62 56 51 47 42 38 33 29 25 22 19 17 15 15 16 16 15 16 17 18 18 17 17 19 21 25 26 27 26 25 27 36 28 29 28 30 17 9 15 13
79 76 67 62 58 52 46 42 37 33 30 27 24 22 19 18 18 17 17 17 17 19 19 18 17 16 19 23 25 27 26 25 25 24 28 33 26 28 23 34 26 25 21
79 73 68 62 56 50 46 41 37 34 31 29 27 25 24 22 20 19 18 19 19 19 19 18 17 17 21 23 24 26 27 27 24 25 30 24 26 26 35 36 27 30 28
71 72 68 60 55 49 44 40 37 35 32 31 30 29 28 25 23 21 21 20 20 20 19 18 18 18 21 21 24 25 25 27 26 28 28 25 28 28 31 29 23 25 29
73 72 66 63 56 52 46 40 38 36 34 34 34 32 31 29 26 24 22 20 20 19 18 17 17 17 19 22 24 25 27 28 29 29 17 21 30 32 29 24 21 24 24
74 72 66 60 55 50 45 42 38 37 37 37 37 35 32 30 28 25 23 20 19 18 17 15 16 15 17 22 23 23 23 24 22 20 12 17 28 27 24 23 24 24 26
81 75 68 63 58 53 49 45 42 40 39 39 38 37 33 30 28 25 23 21 20 18 17 15 17 18 19 19 21 21 21 21 16 12 13 19 26 25 25 25 24 24 25
87 78 72 66 60 55 51 49 46 45 44 43 40 36 33 31 29 27 25 22 20 18 17 17 18 19 18 19 19 19 21 20 20 19 19 21 25 26 26 26 25 26 28
86 80 75 66 60 52 50 49 48 49 48 46 41 36 32 30 30 28 26 24 22 19 16 17 16 19 18 19 19 20 21 20 22 22 21 21 21 22 23 24 24 24 24
81 83 76 68 61 55 51 49 49 50 48 46 42 37 32 30 29 29 28 26 22 19 16 16 15 16 16 18 19 18 19 20 20 22 20 19 19 17 18 20 21 21 23
84 83 77 69 61 56 53 51 50 50 49 46 41 36 33 29 27 28 27 26 22 20 17 16 15 14 14 16 16 17 17 18 17 17 21 17 18 15 15 17 18 19 21
80 81 76 69 62 57 54 53 53 52 49 46 42 37 32 29 26 26 26 25 23 21 18 17 15 13 11 13 14 15 16 16 15 14 15 15 15 15 16 17 18 19 21
78 83 78 71 66 59 58 57 56 53 49 46 42 38 32 29 26 26 25 24 22 21 18 16 15 13 13 13 13 14 15 14 14 12 11 12 11 11 15 20 22 24 26
24 64 80 77 71 65 61 57 53 51 48 46 42 38 35 31 28 25 25 25 24 22 19 17 16 15 15 13 12 14 14 16 12 8 7 7 8 9 16 23 26 27 28
57 53 72 84 75 67 64 57 55 53 51 46 41 38 36 33 30 29 28 26 24 22 21 19 16 17 17 17 18 16 15 14 4 3 2 3 7 11 19 27 28 29 31
50 64 60 47 80 75 72 67 64 62 56 49 44 40 37 36 33 31 29 29 27 23 22 21 18 18 21 20 21 19 18 10 9 7 4 3 5 16 23 29 32 31 31
48 60 69 81 60 75 70 69 67 62 57 50 47 43 40 36 34 33 31 30 27 23 22 21 18 17 19 19 16 18 17 12 6 6 8 6 11 16 27 32 31 32 31
54 57 67 70 57 62 77 70 64 59 55 56 53 47 44 39 34 32 30 28 27 25 22 20 18 15 14 16 16 14 11 9 10 12 16 16 21 23 33 31 30 33 34
55 56 75 78 73 75 57 68 70 72 73 66 59 52 47 41 36 34 31 30 29 27 22 18 15 12 11 11 9 8 6 6 6 7 14 14 20 28 34 33 32 31 33
63 61 67 72 84 52 64 63 66 69 71 62 57 54 49 44 40 37 34 31 28 27 24 19 13 10 8 6 5 5 2 4 6 8 16 17 33 30 29 30 30 34 38
64 77 73 70 74 60 87 74 75 70 70 66 63 56 51 48 43 37 34 32 30 26 23 18 10 8 6 6 3 4 6 7 11 13 24 34 38 37 34 29 28 39 40
Wind_Direction_500mb
180 177 171 167 162 158 164 159 155 151 146 162 151 148 153 171 181 189 195 203 212 219 215 181 150 125 110 104 116 116 123 119 118 118 113 129 82 17 2 350 322 327 335
171 173 169 166 160 161 166 161 153 152 165 166 160 161 174 173 174 174 179 182 170 141 126 112 105 96 93 99 105 102 100 97 96 96 95 87 55 355 356 8 345 308 305
170 168 168 164 162 169 168 158 165 168 171 169 170 179 183 171 170 164 155 143 126 116 110 104 100 96 98 100 99 102 98 93 85 87 84 80 79 69 69 53 52 46 28
169 167 167 164 167 171 166 168 170 171 172 172 179 183 179 170 159 147 133 119 112 108 101 96 90 90 95 92 96 94 90 86 91 91 82 79 86 71 107 74 66 61 54
169 166 165 169 171 175 170 173 175 177 178 181 181 178 170 161 149 134 122 116 112 106 104 99 95 93 89 89 94 94 92 97 98 91 99 98 73 50 99 78 79 74 58
169 168 165 171 177 176 176 177 178 181 181 182 177 169 164 154 142 131 124 119 110 107 103 100 98 97 94 94 96 98 96 95 92 83 84 77 75 73 58 52 37 66 83
170 169 168 174 181 177 179 180 181 181 180 177 172 165 158 150 142 134 126 119 114 109 104 100 99 97 92 96 99 101 95 93 95 92 84 78 70 63 68 72 60 49 53
172 171 170 178 180 179 180 182 182 180 177 173 167 160 154 149 143 136 131 125 119 113 108 108 106 100 96 100 104 105 97 98 101 86 86 80 68 69 80 71 56 57 52
175 174 174 181 177 179 181 183 181 178 176 171 165 159 155 151 147 142 135 128 122 119 116 113 109 103 101 103 106 104 98 102 96 86 81 73 70 65 79 76 67 66 63
179 180 180 181 179 179 181 182 181 177 173 169 165 161 159 155 150 144 139 133 126 119 112 110 107 105 107 110 108 103 100 108 100 95 91 39 68 72 66 74 73 57 49
182 185 186 183 180 181 183 180 180 176 172 169 166 163 160 156 152 148 144 136 125 118 111 105 99 101 110 116 112 102 103 110 107 106 82 48 72 85 77 65 63 55 47
185 188 188 186 183 183 185 180 180 177 173 171 169 166 161 157 152 151 147 142 135 125 115 106 100 102 109 112 112 104 105 103 105 93 71 74 75 70 63 59 58 54 47
187 187 190 188 186 187 185 180 179 176 174 173 171 168 164 161 158 155 151 147 140 128 119 110 104 106 109 112 111 108 104 102 99 88 82 79 77 64 57 53 52 47 42
190 188 189 189 188 188 188 184 180 178 176 176 175 173 169 164 160 159 155 151 143 135 127 116 112 109 110 112 113 111 107 102 96 82 79 71 70 71 61 51 43 38 35
191 191 190 189 189 189 189 187 183 181 178 179 176 173 171 168 166 163 159 155 147 139 132 122 117 112 114 114 114 115 110 102 94 79 71 76 67 66 56 44 34 30 27
195 190 190 191 191 191 189 190 185 181 180 180 179 176 170 169 171 163 162 155 152 141 140 130 122 119 121 119 119 119 113 102 95 81 65 76 62 64 57 38 30 26 20
204 194 193 192 191 194 192 190 187 184 183 182 179 175 172 169 170 166 164 160 156 149 145 137 131 122 123 127 124 125 122 114 101 85 64 74 74 66 48 35 29 24 16
209 196 195 195 194 194 195 192 188 188 185 184 182 177 175 173 171 171 169 164 160 155 152 142 135 125 130 136 134 135 135 125 107 99 76 72 68 57 33 19 9 6 6
228 197 198 199 196 195 195 194 192 190 188 186 184 181 178 176 174 173 172 172 167 159 155 148 142 134 131 139 144 142 142 139 109 106 93 74 44 26 13 6 360 359 0
234 247 216 202 197 194 194 194 193 191 190 189 188 185 181 179 178 176 177 176 171 165 161 155 150 138 134 134 141 142 140 147 113 129 88 51 25 17 3 356 354 352 352
228 217 238 224 199 194 192 194 195 193 191 191 191 189 186 186 182 178 180 179 173 169 166 158 153 135 136 139 144 149 148 133 94 136 139 117 37 4 358 350 345 346 349
218 213 216 224 206 193 199 200 199 195 193 194 191 191 191 189 186 181 183 180 174 172 170 161 149 144 142 160 168 160 170 187 209 244 208 246 315 342 344 340 338 336 337
208 214 208 216 222 203 197 200 199 197 195 193 194 193 191 190 190 185 181 181 178 175 178 170 163 156 151 145 162 174 166 181 199 241 233 263 294 307 323 325 327 325 323
213 210 209 208 203 206 203 196 204 202 199 198 196 193 191 188 189 186 185 184 184 181 181 178 170 167 163 150 147 137 151 166 177 201 242 257 295 311 318 322 323 318 318
208 194 190 201 206 209 229 210 204 207 206 199 196 193 190 186 190 188 187 187 186 185 184 179 171 158 149 136 157 137 77 341 312 294 287 279 294 309 325 330 331 327 325
208 204 206 202 204 208 203 220 214 210 209 200 197 194 192 190 188 187 186 187 187 186 186 173 171 162 141 131 92 21 350 327 314 314 308 313 318 323 329 327 324 322 321
Wind_Speed_850mb
63 58 56 54 55 49 43 41 35 31 29 30 30 21 12 11 13 13 13 11 9 7 4 4 4 4 4 5 5 5 5 5 5 5 4 3 1 7 8 11 10 10 7
68 63 59 60 56 48 44 39 35 32 34 30 27 16 9 10 12 12 11 9 7 7 8 8 8 9 9 9 9 10 12 12 13 12 9 6 5 8 11 15 10 10 8
67 66 63 62 55 50 45 40 38 37 30 29 23 14 11 12 12 11 10 10 11 11 11 11 12 14 14 14 15 16 16 15 16 15 15 17 24 20 26 27 27 21 14
67 69 68 59 56 50 45 45 41 35 31 28 21 16 15 13 12 12 12 13 13 14 14 14 15 16 16 17 19 21 22 25 29 32 34 27 20 12 12 27 27 25 23
69 71 68 60 56 52 46 43 39 35 30 25 20 18 16 14 13 14 14 14 15 15 16 16 17 17 17 20 24 26 26 30 34 33 23 16 13 20 10 10 10 16 22
74 75 66 62 56 51 47 42 38 33 29 25 22 19 17 15 15 16 16 15 16 17 18 18 17 17 19 21 25 26 27 26 25 27 36 28 29 28 30 17 9 15 13
79 76 67 62 58 52 46 42 37 33 30 27 24 22 19 18 18 17 17 17 17 19 19 18 17 16 19 23 25 27 26 25 25 24 28 33 26 28 23 34 26 25 21
79 73 68 62 56 50 46 41 37 34 31 29 27 25 24 22 20 19 18 19 19 19 19 18 17 17 21 23 24 26 27 27 24 25 30 24 26 26 35 36 27 30 28
71 72 68 60 55 49 44 40 37 35 32 31 30 29 28 25 23 21 21 20 20 20 19 18 18 18 21 21 24 25 25 27 26 28 28 25 28 28 31 29 23 25 29
73 72 66 63 56 52 46 40 38 36 34 34 34 32 31 29 26 24 22 20 20 19 18 17 17 17 19 22 24 25 27 28 29 29 17 21 30 32 29 24 21 24 24
74 72 66 60 55 50 45 42 38 37 37 37 37 35 32 30 28 25 23 20 19 18 17 15 16 15 17 22 23 23 23 24 22 20 12 17 28 27 24 23 24 24 26
81 75 68 63 58 53 49 45 42 40 39 39 38 37 33 30 28 25 23 21 20 18 17 15 17 18 19 19 21 21 21 21 16 12 13 19 26 25 25 25 24 24 25
87 78 72 66 60 55 51 49 46 45 44 43 40 36 33 31 29 27 25 22 20 18 17 17 18 19 18 19 19 19 21 20 20 19 19 21 25 26 26 26 25 26 28
86 80 75 66 60 52 50 49 48 49 48 46 41 36 32 30 30 28 26 24 22 19 16 17 16 19 18 19 19 20 21 20 22 22 21 21 21 22 23 24 24 24 24
81 83 76 68 61 55 51 49 49 50 48 46 42 37 32 30 29 29 28 26 22 19 16 16 15 16 16 18 19 18 19 20 20 22 20 19 19 17 18 20 21 21 23
84 83 77 69 61 56 53 51 50 50 49 46 41 36 33 29 27 28 27 26 22 20 17 16 15 14 14 16 16 17 17 18 17 17 21 17 18 15 15 17 18 19 21
80 81 76 69 62 57 54 53 53 52 49 46 42 37 32 29 26 26 26 25 23 21 18 17 15 13 11 13 14 15 16 16 15 14 15 15 15 15 16 17 18 19 21
78 83 78 71 66 59 58 57 56 53 49 46 42 38 32 29 26 26 25 24 22 21 18 16 15 13 13 13 13 14 15 14 14 12 11 12 11 11 15 20 22 24 26
24 64 80 77 71 65 61 57 53 51 48 46 42 38 35 31 28 25 25 25 24 22 19 17 16 15 15 13 12 14 14 16 12 8 7 7 8 9 16 23 26 27 28
57 53 72 84 75 67 64 57 55 53 51 46 41 38 36 33 30 29 28 26 24 22 21 19 16 17 17 17 18 16 15 14 4 3 2 3 7 11 19 27 28 29 31
50 64 60 47 80 75 72 67 64 62 56 49 44 40 37 36 33 31 29 29 27 23 22 21 18 18 21 20 21 19 18 10 9 7 4 3 5 16 23 29 32 31 31
48 60 69 81 60 75 70 69 67 62 57 50 47 43 40 36 34 33 31 30 27 23 22 21 18 17 19 19 16 18 17 12 6 6 8 6 11 16 27 32 31 32 31
54 57 67 70 57 62 77 70 64 59 55 56 53 47 44 39 34 32 30 28 27 25 22 20 18 15 14 16 16 14 11 9 10 12 16 16 21 23 33 31 30 33 34
55 56 75 78 73 75 57 68 70 72 73 66 59 52 47 41 36 34 31 30 29 27 22 18 15 12 11 11 9 8 6 6 6 7 14 14 20 28 34 33 32 31 33
63 61 67 72 84 52 64 63 66 69 71 62 57 54 49 44 40 37 34 31 28 27 24 19 13 10 8 6 5 5 2 4 6 8 16 17 33 30 29 30 30 34 38
64 77 73 70 74 60 87 74 75 70 70 66 63 56 51 48 43 37 34 32 30 26 23 18 10 8 6 6 3 4 6 7 11 13 24 34 38 37 34 29 28 39 40
Wind_Direction_850mb
180 177 171 167 162 158 164 159 155 151 146 162 151 148 153 171 181 189 195 203 212 219 215 181 150 125 110 104 116 116 123 119 118 118 113 129 82 17 2 350 322 327 335
171 173 169 166 160 161 166 161 153 152 165 166 160 161 174 173 174 174 179 182 170 141 126 112 105 96 93 99 105 102 100 97 96 96 95 87 55 355 356 8 345 308 305
170 168 168 164 162 169 168 158 165 168 171 169 170 179 183 171 170 164 155 143 126 116 110 104 100 96 98 100 99 102 98 93 85 87 84 80 79 69 69 53 52 46 28
169 167 167 164 167 171 166 168 170 171 172 172 179 183 179 170 159 147 133 119 112 108 101 96 90 90 95 92 96 94 90 86 91 91 82 79 86 71 107 74 66 61 54
169 166 165 169 171 175 170 173 175 177 178 181 181 178 170 161 149 134 122 116 112 106 104 99 95 93 89 89 94 94 92 97 98 91 99 98 73 50 99 78 79 74 58
169 168 165 171 177 176 176 177 178 181 181 182 177 169 164 154 142 131 124 119 110 107 103 100 98 97 94 94 96 98 96 95 92 83 84 77 75 73 58 52 37 66 83
170 169 168 174 181 177 179 180 181 181 180 177 172 165 158 150 142 134 126 119 114 109 104 100 99 97 92 96 99 101 95 93 95 92 84 78 70 63 68 72 60 49 53
172 171 170 178 180 179 180 182 182 180 177 173 167 160 154 149 143 136 131 125 119 113 108 108 106 100 96 100 104 105 97 98 101 86 86 80 68 69 80 71 56 57 52
175 174 174 181 177 179 181 183 181 178 176 171 165 159 155 151 147 142 135 128 122 119 116 113 109 103 101 103 106 104 98 102 96 86 81 73 70 65 79 76 67 66 63
179 180 180 181 179 179 181 182 181 177 173 169 165 161 159 155 150 144 139 133 126 119 112 110 107 105 107 110 108 103 100 108 100 95 91 39 68 72 66 74 73 57 49
182 185 186 183 180 181 183 180 180 176 172 169 166 163 160 156 152 148 144 136 125 118 111 105 99 101 110 116 112 102 103 110 107 106 82 48 72 85 77 65 63 55 47
185 188 188 186 183 183 185 180 180 177 173 171 169 166 161 157 152 151 147 142 135 125 115 106 100 102 109 112 112 104 105 103 105 93 71 74 75 70 63 59 58 54 47
187 187 190 188 186 187 185 180 179 176 174 173 171 168 164 161 158 155 151 147 140 128 119 110 104 106 109 112 111 108 104 102 99 88 82 79 77 64 57 53 52 47 42
190 188 189 189 188 188 188 184 180 178 176 176 175 173 169 164 160 159 155 151 143 135 127 116 112 109 110 112 113 111 107 102 96 82 79 71 70 71 61 51 43 38 35
191 191 190 189 189 189 189 187 183 181 178 179 176 173 171 168 166 163 159 155 147 139 132 122 117 112 114 114 114 115 110 102 94 79 71 76 67 66 56 44 34 30 27
195 190 190 191 191 191 189 190 185 181 180 180 179 176 170 169 171 163 162 155 152 141 140 130 122 119 121 119 119 119 113 102 95 81 65 76 62 64 57 38 30 26 20
204 194 193 192 191 194 192 190 187 184 183 182 179 175 172 169 170 166 164 160 156 149 145 137 131 122 123 127 124 125 122 114 101 85 64 74 74 66 48 35 29 24 16
209 196 195 195 194 194 195 192 188 188 185 184 182 177 175 173 171 171 169 164 160 155 152 142 135 125 130 136 134 135 135 125 107 99 76 72 68 57 33 19 9 6 6
228 197 198 199 196 195 195 194 192 190 188 186 184 181 178 176 174 173 172 172 167 159 155 148 142 134 131 139 144 142 142 139 109 106 93 74 44 26 13 6 360 359 0
234 247 216 202 197 194 194 194 193 191 190 189 188 185 181 179 178 176 177 176 171 165 161 155 150 138 134 134 141 142 140 147 113 129 88 51 25 17 3 356 354 352 352
228 217 238 224 199 194 192 194 195 193 191 191 191 189 186 186 182 178 180 179 173 169 166 158 153 135 136 139 144 149 148 133 94 136 139 117 37 4 358 350 345 346 349
218 213 216 224 206 193 199 200 199 195 193 194 191 191 191 189 186 181 183 180 174 172 170 161 149 144 142 160 168 160 170 187 209 244 208 246 315 342 344 340 338 336 337
208 214 208 216 222 203 197 200 199 197 195 193 194 193 191 190 190 185 181 181 178 175 178 170 163 156 151 145 162 174 166 181 199 241 233 263 294 307 323 325 327 325 323
213 210 209 208 203 206 203 196 204 202 199 198 196 193 191 188 189 186 185 184 184 181 181 178 170 167 163 150 147 137 151 166 177 201 242 257 295 311 318 322 323 318 318
208 194 190 201 206 209 229 210 204 207 206 199 196 193 190 186 190 188 187 187 186 185 184 179 171 158 149 136 157 137 77 341 312 294 287 279 294 309 325 330 331 327 325
208 204 206 202 204 208 203 220 214 210 209 200 197 194 192 190 188 187 186 187 187 186 186 173 171 162 141 131 92 21 350 327 314 314 308 313 318 323 329 327 324 322 321